Starlink 31243

operational
NORAD ID: 58894 Int'l Des: 2024-020 Owner: SPXS Country: US Constellation: starlink
LEOCIRCULAR

Über Starlink 31243

Beschreibung wird geladen...

Live-Position

3D-Globus wird geladen...

Nächste Überflüge

Höhenverlauf

Altitude vs Time

uPlot chart will show altitude changes over time

Zweizeiliger Elementsatz

1 58894U 24020U 25352.26927425 -.00002352 00000-0 -67303-4 0 9993
2 58894 53.1640 340.7279 0001919 96.8046 263.3173 15.30194572105604
Epoch: 18. Dez. 2025 • Age: 20 hours

Aktueller Status

Höhe 478.1 km
Geschwindigkeit 7.63 km/s
Subsatellitenpunkt -8.75°S, 159.65°W
Startdatum 29. Jan. 2024
Alter 1.8 years
Typ internet

Technische Details

Klassifizierung Payload
Masse 730.00 kg
Trockenmasse 700.00 kg
Gesamtmasse 730.00 kg
Länge 0.30 m
Durchmesser 4.10 m
Spannweite 29.00 m
Form Box + pan
Hersteller SPXS
Bus-Typ Starlink V2M
Phasenstatus In Orbit
Besitzer/Staat SPXS/US

Große Konstellationen

Loading constellations...